Voltar ao catálogo

COSMOS 2024

ETALON 2

AtivoCiênciaMEO
NORAD 20026·PAYLOAD·🇷🇺 Russia

Lançado May 31, 1989 de Baikonur Cosmodrome

Loading…

Próximas Passagens (próximas 24 horas)

TLE

AtualizadoSource: CelesTrak SupGP

Época: Sep 14, 2026, 00:00 UTC

1 20026C 89039C   26257.00000000  .00000000  00000+0  00000+0 0  2576
2 20026  64.8758 307.4714 0020822 212.3397  36.9654  2.13204840    15

Acompanhe COSMOS 2024 em tempo real com AllMySat

Download on the App Store